Tracking 25195 objects as of 20-Jan-2022
HD Live streaming from Space Station
objects crossing your sky now

BS-3A (YURI 3A)

Track BS-3A (YURI 3A) now!
BS-3A (YURI 3A) is classified as:


NORAD ID: 20771
Int'l Code: 1990-077A
Perigee: 36,168.4 km
Apogee: 36,246.5 km
Inclination: 15.5 °
Period: 1,457.3 minutes
Semi major axis: 42578 km
RCS: 1.6597 m2 (large)
Launch date: August 28, 1990
Source: Japan (JPN)
Launch site: TANEGASHIMA SPACE CENTER (TNSTA)
aabbcc
Your satellite tracking list
Your tracking list is empty




NASA's NSSDC Master Catalog

Two Line Element Set (TLE):
1 20771U 90077A   22019.77144666 -.00000265  00000-0  00000-0 0  9999
2 20771  15.4787  10.1093 0009165 248.1984 281.9193  0.98813942119673
Source of the keplerian elements: AFSPC